Theta_e
347 344 347 346 343 341 341 337 332 329 327 326 324 321 319 319 318 317 315 315 316 317 316 314 312 312 312 312 312 312 312 311 311 312 311 312 313 312 313 311 311 311 311
348 344 345 344 340 337 336 329 327 326 324 321 320 319 318 318 316 316 315 315 315 315 314 313 311 310 311 311 312 311 310 310 309 309 311 312 311 311 310 310 310 310 311
343 343 341 338 336 329 326 325 323 320 318 318 319 318 316 316 316 315 315 315 313 311 311 309 308 308 310 310 311 310 309 309 309 309 310 310 310 308 309 309 310 310 310
339 337 335 331 326 324 322 319 319 318 318 317 317 316 315 315 315 314 314 312 310 308 308 308 309 309 309 309 309 308 308 309 310 310 309 309 307 307 306 306 309 308 309
334 331 325 323 321 319 318 318 317 317 317 316 316 315 314 314 313 311 309 309 308 308 307 308 308 308 308 308 307 307 308 309 309 309 308 307 305 304 303 303 303 305 307
324 322 321 319 319 319 319 319 318 317 316 315 314 313 312 309 308 308 308 307 307 307 307 306 306 306 306 306 306 307 307 308 308 307 304 303 302 300 300 301 302 303 303
321 320 320 319 319 318 318 317 316 315 314 312 309 308 307 307 306 306 306 305 305 305 305 304 304 304 304 305 305 304 304 303 302 301 301 300 299 299 297 300 302 300 302
320 320 319 318 316 316 315 315 313 309 307 306 305 305 303 303 303 304 305 305 305 305 305 305 305 305 304 304 301 301 301 300 300 298 297 297 298 296 296 298 300 299 302
317 315 314 314 313 311 308 307 306 305 305 303 302 301 299 301 301 302 303 304 305 305 305 304 303 300 299 298 298 297 297 297 295 294 295 297 298 300 299 300 299 297 300
314 313 311 307 305 305 305 305 303 303 302 301 301 299 299 298 296 298 300 302 303 302 301 300 300 298 297 297 296 295 295 293 292 292 298 302 302 301 300 298 297 294 293
310 306 303 303 303 304 304 304 304 304 303 301 300 298 297 291 292 296 299 299 300 299 297 296 295 295 295 295 295 294 293 291 291 292 301 301 302 302 300 299 297 296 296
304 302 302 302 302 302 302 303 303 301 302 300 299 297 292 291 292 295 296 297 296 296 295 295 294 294 294 294 293 292 290 290 291 291 295 300 301 301 301 299 298 298 299
302 302 301 300 300 300 300 300 299 300 300 298 295 291 291 291 292 294 295 295 295 294 294 294 293 293 293 292 291 290 290 290 290 291 293 299 300 299 298 299 301 301 303
302 300 298 295 292 292 294 295 293 294 294 291 291 291 291 292 292 292 292 292 292 292 292 292 292 292 291 290 290 289 289 289 290 290 291 297 300 299 300 299 300 302 306
301 300 298 295 293 292 291 291 291 291 291 291 291 291 292 292 292 292 292 292 292 291 291 291 291 291 290 288 288 288 288 289 289 290 290 291 297 300 299 299 297 300 299
301 299 298 297 295 295 294 292 290 291 291 291 291 291 292 292 292 292 291 292 292 291 291 291 291 291 290 288 287 287 288 288 289 289 290 290 290 297 299 299 298 297 298
300 299 297 296 296 295 294 294 292 290 292 292 292 292 291 291 291 292 291 291 291 291 291 290 290 290 289 287 286 286 287 287 288 289 289 289 289 293 296 297 296 298 299
298 298 297 296 295 295 295 294 293 291 292 292 292 292 291 291 291 291 291 290 291 290 290 289 289 289 289 287 285 285 286 287 287 288 289 289 289 289 293 295 295 295 296
297 296 296 295 295 295 294 294 293 292 292 292 292 291 291 291 290 290 290 290 289 290 289 289 288 288 287 286 285 285 285 286 287 287 288 288 288 289 289 292 296 296 295
296 296 295 295 294 294 294 293 292 292 291 292 291 291 291 290 290 289 289 289 289 289 289 288 288 287 286 286 285 285 285 286 286 287 287 288 288 288 288 289 295 295 295
295 295 295 294 294 293 293 292 292 291 291 291 291 290 290 290 289 289 289 288 288 288 288 287 287 286 286 286 285 284 285 285 285 286 287 287 288 288 289 288 293 296 295
295 294 294 294 293 293 292 292 292 291 291 291 290 290 290 289 289 288 287 287 287 287 287 286 286 286 286 285 284 284 284 284 285 285 286 286 287 288 288 288 290 295 296
293 294 293 293 292 292 292 291 291 291 291 290 290 290 289 289 288 288 287 287 286 286 286 286 286 286 285 285 284 284 284 284 284 284 285 286 287 287 287 288 288 291 295
293 293 293 293 292 291 291 291 290 290 290 290 289 289 289 288 287 287 287 286 286 285 285 285 285 285 285 284 284 284 284 283 284 284 284 286 287 287 287 288 288 289 293
293 293 292 291 291 291 290 290 290 290 289 289 289 288 288 288 287 287 286 285 285 285 285 285 285 285 284 284 284 284 284 284 284 284 284 285 286 287 287 287 288 288 291
293 292 292 291 291 291 290 290 290 289 289 289 288 288 288 287 287 286 286 285 285 285 285 285 284 284 284 284 284 284 284 284 284 284 284 284 285 286 287 287 288 288 289
Wind_Speed
35 33 32 29 24 23 21 19 19 17 14 13 12 11 11 8 5 4 6 7 8 11 13 16 17 19 19 17 17 17 21 22 26 33 31 29 26 27 28 30 32 32 30
37 33 31 28 23 22 22 21 18 18 16 16 14 12 9 6 6 6 7 9 11 15 18 19 20 20 20 18 16 19 21 24 27 29 30 28 27 28 30 34 34 33 33
37 34 28 24 25 25 24 22 20 20 18 15 12 10 7 6 7 8 10 13 16 18 18 18 18 17 17 18 19 21 23 25 26 20 27 28 30 31 37 36 39 39 40
32 30 26 27 26 25 25 23 21 18 15 12 9 7 6 7 8 10 14 16 15 15 14 13 13 15 18 20 21 24 26 24 19 20 25 29 32 35 37 41 47 45 46
33 33 35 33 31 29 25 22 19 15 11 9 7 6 5 8 11 12 12 14 14 13 11 11 13 14 17 21 24 27 22 19 21 23 26 29 32 36 38 41 43 49 50
41 41 38 34 30 26 23 19 15 11 10 7 4 4 7 9 10 10 13 13 13 14 14 12 13 15 18 21 20 19 15 16 22 24 26 27 32 32 37 40 42 45 49
42 39 36 31 28 23 19 16 13 10 7 4 2 4 7 9 10 11 12 12 15 17 16 13 12 15 16 16 14 11 9 12 15 20 25 26 30 31 39 43 42 41 41
40 36 31 27 23 20 17 13 9 7 4 3 4 7 10 10 11 11 11 12 14 16 14 13 14 15 15 12 12 11 13 16 17 20 23 24 24 31 35 39 39 39 40
35 31 26 21 19 16 14 11 9 8 9 8 9 10 11 13 12 11 9 10 10 9 10 11 11 12 13 15 16 18 20 22 22 21 18 18 26 30 31 33 31 32 37
31 26 21 18 17 16 14 14 15 13 11 9 9 12 16 17 15 14 13 13 12 12 12 12 12 11 11 15 17 21 23 24 25 23 18 22 28 29 26 25 27 28 29
27 24 21 19 18 16 17 17 15 13 9 8 10 14 18 20 19 16 14 13 12 13 12 13 13 11 10 12 15 19 19 24 23 21 22 29 33 31 27 25 23 23 25
25 25 23 20 18 14 11 14 11 11 8 7 9 13 14 14 14 16 17 15 13 11 12 11 11 10 9 11 15 16 20 24 25 28 24 31 35 34 30 29 28 25 23
26 25 20 16 13 12 11 12 11 10 9 7 8 11 14 15 13 13 12 10 10 12 10 9 10 10 11 12 16 19 25 28 29 30 31 29 33 35 33 34 31 32 29
27 23 19 18 19 18 15 12 11 10 10 11 12 14 15 16 17 15 14 13 13 13 11 11 12 14 17 20 20 25 29 30 31 30 33 28 32 37 37 37 38 37 33
24 23 22 21 20 22 22 20 17 18 14 14 15 15 15 17 18 17 15 15 15 15 12 15 18 21 25 29 27 29 31 31 32 33 33 35 34 37 39 42 41 38 37
24 22 21 21 21 20 20 23 21 19 19 21 21 17 15 13 10 11 14 11 11 13 16 21 22 23 27 31 32 32 33 33 33 34 36 37 38 36 41 43 43 41 39
22 20 19 19 19 19 20 20 21 19 17 18 18 18 18 14 11 11 13 11 9 11 19 22 23 23 26 30 32 33 34 33 32 34 36 38 40 37 40 44 44 44 43
21 19 16 17 18 18 16 17 17 17 16 16 15 15 16 13 11 10 12 11 11 16 19 22 24 23 25 29 33 33 34 34 34 35 36 38 40 40 42 44 45 45 46
20 19 17 17 16 13 13 14 15 16 15 13 11 12 12 12 10 10 12 16 16 16 18 21 23 23 25 28 32 32 33 34 34 35 36 39 40 40 42 42 43 45 46
17 15 14 14 14 14 12 14 13 13 14 12 10 10 8 9 12 13 11 13 15 15 17 20 23 24 26 28 31 32 32 35 37 37 38 38 39 39 41 43 42 46 47
19 17 14 13 12 12 11 11 12 12 13 11 10 8 8 10 12 13 10 12 14 14 16 19 21 24 26 29 31 32 33 34 36 37 38 37 38 39 39 41 40 43 45
14 13 12 13 13 12 13 12 10 11 10 8 6 5 7 9 10 12 9 10 12 12 13 17 20 23 26 30 31 32 34 35 36 36 38 37 37 37 38 39 41 41 44
17 17 15 15 14 11 11 11 8 6 4 3 3 3 6 8 9 11 10 9 11 12 13 17 20 23 25 27 28 30 31 34 35 35 36 37 36 38 36 38 40 42 42
15 14 13 15 14 12 10 8 6 5 2 1 2 3 6 8 9 10 11 10 11 12 14 17 20 23 25 27 27 28 29 30 31 32 33 34 36 35 35 36 38 40 41
12 12 11 11 11 9 7 6 5 3 1 1 2 3 6 8 9 11 12 12 12 13 15 18 21 24 25 26 26 27 28 28 29 30 32 32 34 34 34 34 35 39 39
7 8 9 8 8 6 5 5 6 5 3 3 4 4 6 8 10 13 13 13 14 15 16 19 21 23 24 24 25 26 27 28 28 29 30 31 33 33 34 33 34 36 39
Wind_Direction
179 185 185 186 197 192 187 185 176 175 180 182 181 185 199 214 239 273 264 275 286 292 294 299 304 304 306 314 318 318 311 314 312 305 308 321 327 329 330 339 336 334 335
175 175 176 172 179 187 176 171 173 168 167 175 182 196 210 241 268 287 300 303 301 301 304 305 306 307 306 313 314 314 314 316 313 314 319 327 330 332 332 330 330 328 330
167 166 163 168 171 161 163 161 159 163 166 172 191 209 227 257 281 297 303 307 309 310 311 311 312 310 308 316 315 313 314 315 317 320 321 327 330 336 327 326 326 328 329
158 160 164 156 153 153 154 155 159 166 173 185 199 222 242 265 284 298 307 310 313 319 321 313 315 314 320 322 320 317 319 318 317 323 325 326 328 328 329 330 325 327 327
154 151 144 148 151 152 156 160 162 169 174 190 203 220 257 286 298 310 316 321 324 322 316 318 322 322 323 321 321 319 320 317 320 326 326 323 326 330 334 330 326 324 324
141 141 144 148 149 153 156 159 170 175 181 191 217 279 306 317 329 338 341 339 336 325 321 329 331 317 317 318 317 322 318 310 318 323 325 327 325 329 329 329 325 324 323
139 141 144 148 151 155 160 168 173 178 190 216 266 322 340 354 358 358 359 358 352 349 348 349 347 337 331 329 335 345 341 327 324 329 326 328 325 330 328 324 323 320 314
140 143 145 149 150 155 166 170 168 164 148 84 39 35 22 19 22 15 13 14 10 5 0 352 346 345 349 359 4 352 340 341 341 333 328 324 325 325 320 320 319 317 317
140 139 141 145 147 152 151 143 123 108 95 88 69 48 39 37 30 23 17 15 17 19 8 3 19 22 17 6 356 354 345 342 341 338 330 325 328 329 326 326 332 329 328
135 131 130 133 135 133 129 121 111 105 98 87 63 54 32 27 29 32 28 27 33 45 37 23 14 18 13 359 355 352 347 349 346 344 343 345 345 344 344 346 339 332 332
127 127 130 132 135 140 138 128 122 114 102 84 62 40 25 30 32 30 29 36 42 46 45 44 39 24 14 4 355 353 353 347 351 349 352 356 359 356 355 353 350 339 329
128 124 122 122 121 123 128 139 135 127 128 110 48 29 36 42 49 48 48 52 59 51 44 34 24 10 10 356 350 356 356 0 2 3 355 0 1 2 0 359 357 351 346
123 115 113 114 127 130 137 126 121 118 121 86 43 61 68 62 67 64 60 51 39 31 31 15 357 359 360 359 5 8 7 9 8 7 5 4 6 6 4 3 4 3 356
116 108 103 106 113 115 122 125 122 116 108 95 90 84 79 72 66 61 51 49 50 45 36 31 27 29 30 25 21 17 15 14 12 8 7 4 10 11 11 9 7 3 1
115 108 102 102 104 107 104 101 103 103 95 93 91 86 77 65 56 54 49 44 45 44 33 32 31 32 26 24 24 19 16 15 14 11 8 10 11 11 13 16 11 5 5
115 108 106 104 99 96 95 96 89 91 89 83 80 78 72 69 64 46 43 49 36 34 36 33 29 28 23 19 19 18 16 15 14 12 11 12 11 10 13 16 13 9 3
122 117 109 106 101 96 92 87 84 87 93 88 78 71 67 66 62 51 46 47 38 22 34 29 27 25 19 17 17 16 15 14 13 13 12 13 10 12 15 15 13 9 5
122 115 111 110 107 104 100 90 78 76 97 85 75 66 57 57 55 50 42 45 43 28 27 25 23 21 16 15 14 13 12 13 14 13 11 12 11 11 14 13 12 11 5
123 121 117 113 109 106 102 92 80 74 94 89 84 67 51 46 47 45 34 39 38 31 20 17 17 17 13 12 12 12 10 11 12 11 12 12 10 10 13 13 10 13 8
131 129 128 123 117 113 107 103 92 83 88 88 84 73 39 16 38 41 35 33 31 26 17 9 12 12 10 8 9 10 10 9 10 11 12 10 9 10 11 10 11 10 9
130 132 131 129 126 119 113 106 100 95 93 86 81 63 26 21 32 32 31 23 24 16 8 3 7 8 7 6 6 7 9 10 8 8 9 9 7 8 10 9 10 12 9
141 138 132 122 126 125 124 120 115 114 113 97 86 56 14 10 21 25 24 15 18 10 357 357 1 4 4 4 3 3 5 7 8 6 5 6 5 8 9 7 9 12 9
134 144 142 129 123 136 130 125 125 123 114 91 71 27 9 5 6 16 16 1 5 3 348 353 355 358 1 2 2 2 3 4 4 3 3 2 4 7 7 6 8 9 8
140 141 136 141 139 137 144 147 137 126 108 46 356 6 2 357 351 359 3 354 357 354 342 348 351 355 357 359 359 0 2 2 1 1 2 0 4 4 5 6 6 9 8
163 163 161 157 158 159 164 171 185 183 192 303 321 327 344 348 349 352 355 354 354 350 344 346 349 350 354 356 355 357 358 358 359 359 359 1 3 3 4 6 5 6 8
181 184 187 189 195 196 209 219 228 235 255 279 280 297 326 337 346 347 349 351 351 347 345 348 349 347 350 351 352 353 353 354 356 358 358 0 1 4 1 4 5 5 7